Address 0xb12bfca5a55806aaf64e99521918a4bf0fc40802

Txn Hash Method
Block
From
To
Value [Txn Fee]
0x163dbfab8e47d2d365ee4ab1d44dccda4f3c5665e6e1ea4f4bbd95cdd81baac7Approve751015272022-09-28 15:47:0711 mins ago0x7e98e142259d873bb65f33db8eb33d6a427f1e4f IN USDC Token0 ETH0.00000326228
0xf36439256846b734e4c1cff3fcefcd5b3caf8a44ee268efe7db76e4288a21feaApprove751007172022-09-28 15:31:1227 mins ago0xf8435e798b0489cb357e0c7c119f113ea70ebeca IN USDC Token0 ETH0.00000326228
0x2611dc2e476152a4e8708f1afa703f46622a47ffff04084e5baa960862ec5ea60x6b351848750986752022-09-28 14:50:001 hr 8 mins ago0x7cee8d3939a4b4a95e6820c6697a57ef6220e5ba IN USDC Token0 ETH0.00000219338
0xfd76e4f8112560636a1de203b8048ae8eb8185d6e7062ad7ff79004607b2e28eApprove750982862022-09-28 14:42:151 hr 16 mins ago0x64b55287e146ae091b7bcb749ba57382d34c1009 IN USDC Token0 ETH0.00000326228
0x9322000a0bef2078c88290aef24bacf5633e96a54b45ea2de8efb52ae855e42fApprove750982812022-09-28 14:42:091 hr 16 mins ago0x24a304386099637e578c02ffeaf2cf3dcfbab751 IN USDC Token0 ETH0.00000326228
0xd4dd21afaaff97f8e8f2b44e499aa5e4687bf19005120a5ec59bfe3c54971f300x6b351848750978392022-09-28 14:33:321 hr 24 mins ago0xd3868ba26f64912b02d99d478322967d7db81b47 IN USDC Token0 ETH0.00000213731
0x791c6df23cab22e9ef05f1bf37ac9d0d16bb0f3ef904176b7f19229df022b77d0x8d32caf4750973412022-09-28 14:23:401 hr 34 mins ago0x286b534a51d5dab251746f369bb31126631e316d IN USDC Token0 ETH0.0000024199
0x43f8336a9a9f84f7ffc8332b73a93bc4c2574cb7a5c18c4cc418b969800f0324Approve750973352022-09-28 14:23:331 hr 34 mins ago0x8189ca95335af50a0c9490547186008a6d7747da IN USDC Token0 ETH0.00000323792
0xfd7241aee41222b254b6527f5466313aa3a9c9f8c49f727979bf08dfa69c73e50x6b351848750957732022-09-28 13:51:252 hrs 6 mins ago0xa2e3a7e9121eb944d42696954326ede72fb50f49 IN USDC Token0 ETH0
0x7c3b072247a3cb50f9e7cde4e2537f21246a302709bb4a504d49597b0ecaa3fc0x6b351848750954702022-09-28 13:45:332 hrs 12 mins ago0x06796233708702a0b147a43eeb26fc7d8ad63311 IN USDC Token0 ETH0.00000213563
0xe143eb7d67afbbf982c29ee962388c86e08579ae0097edd53172633306123f790x8d32caf4750952852022-09-28 13:42:022 hrs 16 mins ago0xacc4c1ea473a576a52483aa72327340587d51925 IN USDC Token0 ETH0.00000208558
0xb89effd037b823775dad0c7a77b21c9694cfe5b9272e9c69d06c7722b282f50fApprove750928522022-09-28 12:51:253 hrs 6 mins ago0xd36c04f6dc8eb30708cd53527871d82080413c30 IN USDC Token0 ETH0.00000326228
0x71ba57b30f69b8315dc8937ef9718adf3c5874b00e1160ebc6ea1364744dd829Approve750924222022-09-28 12:42:033 hrs 16 mins ago0x266178a48c50f104b53ed78ca8e3582dfcfbb286 IN USDC Token0 ETH0
0xd92310c36076797ae0b51186a2db6a7cbdc09398e8d9bd8eccd5081908c9bd61Approve750912102022-09-28 12:18:373 hrs 39 mins ago0xe980168c426e3b1fc0d7e7f99c6a281396540476 IN USDC Token0 ETH0.00000326228
0x92cb52c6645ac1513a679afa593b88e36e4832f6de811306bca3793a536a44eb0x8d32caf4750883232022-09-28 11:21:324 hrs 36 mins ago0xb91e73924b6de4f0807a268bf5c5be14b4bc3657 IN USDC Token0 ETH0.00000208474
0xbac7012bbaf6b5265f1ecab624347edd35c369a77fd34f7ac1d1b47974aa63d8Approve750879792022-09-28 11:14:274 hrs 43 mins ago0x415bf4815e41f4c060c8803476e0a1ac4a76b720 IN USDC Token0 ETH0
0x276121ee993ce9642f7de1a2ee4d75c8bdc1ddd5e364b533022941a3312d8eaaApprove750876772022-09-28 11:08:144 hrs 50 mins ago0x89c1f8d7a7c0dca7f32cccac11b6fc051e386be0 IN USDC Token0 ETH0
0x1339bf672f0efc8f5ef69778665a98828b361f17d58336d2f6f6926de42ece1e0x6b351848750876672022-09-28 11:08:024 hrs 50 mins ago0x6351b855c3aeb273c2c23c8b7ea8508d8019ddca IN USDC Token0 ETH0.00000213983
0x8bdbf8c8f4ef5d49c9510d6f0f3d5b877ff805cf7c9da8df9a37661aa32790640x8d32caf4750875982022-09-28 11:06:384 hrs 51 mins ago0xb851ba14cdd62e86c381104ff433df2efbcad2d0 IN USDC Token0 ETH0.00000208474
0x2751fa1ffa00a5673ca73977ae7edb8a85091b03ed94b1113576fa496e548e63Approve750871382022-09-28 10:57:285 hrs ago0x6351b855c3aeb273c2c23c8b7ea8508d8019ddca IN USDC Token0 ETH0.00000326228
0xc20b3ad112929008fc924e1a437e76439be07a31508bbd5cb9ede29b5b6795c8Transfer750870042022-09-28 10:54:525 hrs 3 mins ago0x42fa7c7b3f8d6c0b5427cf14f25a784eef41bd74 IN USDC Token0 ETH0.00000241164
0x4fbcf4cc9b3d7b09c42f5a13a7aef65ff37d0a8dd369bf9458b1c83ea0694e09Approve750853702022-09-28 10:23:145 hrs 35 mins ago0x7b00640c4c22ceecd8f63067aa2b2b9cfc7342c1 IN USDC Token0 ETH0
0x601de4dc16ca1af1302465b09e43a2d8ff27432f6c80cad31bb51ec2b47b3c5cApprove750852892022-09-28 10:21:395 hrs 36 mins ago0xad4707aec9b7a48d21e5915bfa878032cea8737c IN USDC Token0 ETH0.00000326144
0x637efc989fb2c67b3f9eb91405f1fc1bbfdf01ba4e5243dcc761908b414f6a5eApprove750847882022-09-28 10:12:065 hrs 46 mins ago0xe5ea18e42b4de48f4d3f517614d85af6f5e00f38 IN USDC Token0 ETH0.00000326228
0x1bca2c682f3e10aad04b581651716b1cfb2a3ba013f12dd5a76a7f116da03b1b0x6b351848750844832022-09-28 10:06:015 hrs 52 mins ago0xbd5a0b4de63920a09150ed0e6763a814b036e7ee IN USDC Token0 ETH0.00000213563
[ Download CSV Export 
Parent Txn Hash Block From To Value
Loading

Contract Name:
0

Compiler Version
0

Optimization Enabled:
0

Other Settings:
-NA-
Block Transaction Gas Used Reward
Age Block Fee Address BC Fee Address Voting Power Jailed Incoming
Block Uncle Number Difficulty Gas Used Reward
Loading
Make sure to use the "Vote Down" button for any spammy posts, and the "Vote Up" for interesting conversations.